Regional Weather Roundup
Issued by NWS Grand Forks, ND

Home | Current Version | Previous Version | Graphics & Text | Print | Product List | Glossary On
Versions: 1 2 3 4 5 6 7 8 9 10 11 12 13 14 15 16 17 18 19 20 21 22 23 24 25 26 27 28 29 30 31 32 33 34 35 36 37 38 39 40 41 42 43 44 45 46 47 48 49 50
000
ASUS43 KFGF 050510
RWRFGF
PRAIRIE TO PINES  WEATHER ROUNDUP
NATIONAL WEATHER SERVICE EASTERN NORTH DAKOTA/GRAND FORKS ND
1200 AM CDT TUE MAY 05 2015

 **SATELLITE DATA USED TO AUGMENT SKY COVER AT AUTOMATED STATIONS**
 *****  WEATHER ACROSS EASTERN NORTH DAKOTA  *****

CITY           SKY/WX    TMP DP  RH WIND       PRES   REMARKS
GRAND FORKS    CLEAR     50  27  40 SE7       30.16S
GRAND FRKS AFB CLEAR     44  27  51 S7        30.16S
GRAND FRKS NWS   N/A     50 N/A N/A SE6         N/A
DEVILS LAKE    CLEAR     52  34  50 SE7       30.15S
FARGO          CLEAR     47  26  44 SE6       30.18S
WAHPETON ARPT  CLEAR     52  27  37 E6        30.19S
$$

 ***** WEATHER ACROSS CENTRAL AND WESTERN NORTH DAKOTA  *****

CITY           SKY/WX    TMP DP  RH WIND       PRES   REMARKS
BISMARCK       MOCLDY    49  33  54 SE5       30.12F
MINOT          CLOUDY    59  29  31 S9        30.08F
JAMESTOWN      CLEAR     50  26  39 SE8       30.16S
MINOT AFB      CLOUDY    56  32  39 S10       30.07F
GARRISON         N/A     50  33  52 SE6       30.10S
WILLISTON      CLEAR     55  38  52 SE10      30.03F
DICKINSON      CLEAR     44  31  60 SE12      30.06F
HETTINGER      PTCLDY    48  28  46 SE9       30.09F
$$

 *****  OTHER AIRPORT OBSERVATIONS IN OUR AREA  *****

CITY           SKY/WX    TMP DP  RH WIND       PRES   REMARKS
WALHALLA       FAIR      41  28  60 CALM      30.15S
GRAFTON AIRPOR FAIR      45  27  49 S9        30.16S
VALLEY CITY AR FAIR      48  27  43 S6        30.18S
CANDO          FAIR      46  32  57 SE10      30.14S
CAVALIER APRT  FAIR      46  30  53 CALM      30.15S
GWINNER        CLEAR     48  28  46 E8        30.19S
SHEYENNE NWR     N/A     45  26  47 SE5       29.95
ROLLA          NOT AVBL
 ***** THE ABOVE OBSERVATIONS ARE NON NWS ARE NOT QUALITY
       CONTROLLED AND MAY MIS-REPORT RAIN FOR SNOW...
$$

  *****  WEATHER ACROSS NORTHERN MINNESOTA  *****

CITY           SKY/WX    TMP DP  RH WIND       PRES   REMARKS
FLAG ISLAND    CLEAR     50  36  57 CALM      30.18S
WARROAD        CLEAR     43  34  70 CALM      30.20S
ROSEAU         CLEAR     41  30  65 E3        30.19S
HALLOCK        CLEAR     50  19  29 SE8       30.16S
THF RVR FALLS  CLEAR     52  25  35 SE7       30.19S
BAUDETTE       CLEAR     43  37  79 CALM      30.20S
WASKISH        CLEAR     37  34  87 CALM      30.21S
CROOKSTON      CLEAR     48  25  40 SE8       30.19S
$$
  *****  WEATHER ACROSS CENTRAL AND WEST MINNESOTA  *****

CITY           SKY/WX    TMP DP  RH WIND       PRES   REMARKS
FOSSTON        CLEAR     43  21  42 SE3       30.21S
BEMIDJI        CLEAR     42  28  56 CALM      30.22R
PARK RAPIDS    CLEAR     47  30  51 CALM      30.22R
ELBOW LAKE     FAIR      56  34  44 E7        30.20R
WADENA         CLEAR     41  32  70 E3        30.21S
DETROIT LAKES  FAIR      50  34  53 CALM      30.22R
MOORHEAD       CLEAR     50  25  37 SE5       30.20S
FERGUS FALLS   CLEAR     50  32  50 E5        30.21R
MORRIS MN      CLEAR     54  30  40 E9        30.19R
STAPLES        CLEAR     45  30  57 CALM      30.22S
$$
  *****  WEATHER ELSEWHERE ACROSS MINNESOTA  *****

CITY           SKY/WX    TMP DP  RH WIND       PRES   REMARKS
DULUTH         CLEAR     42  26  53 CALM      30.23R
INTRNTL FALLS  CLEAR     33  29  85 CALM      30.21S
ELY            CLEAR     36  27  69 CALM      30.24S
CLOQUET        CLEAR     39  23  52 CALM      30.24R
WHEATON        CLEAR     46  25  42 E6        30.21R
BRAINERD       CLEAR     41  29  62 CALM      30.23R
HIBBING        CLEAR     37  26  64 NW5       30.23R
ALEXANDRIA     CLEAR     52  29  41 E8        30.22R
SAINT CLOUD    CLEAR     52  23  32 NE6       30.20F
MINNEAPOLIS    MOCLDY    59  28  30 NE7       30.18F
$$

  *****  WEATHER ACROSS SOUTH DAKOTA  *****

CITY           SKY/WX    TMP DP  RH WIND       PRES   REMARKS
SIOUX FALLS    PTCLDY    54  29  38 E6        30.15R
BROOKINGS      CLEAR     55  27  33 E7        30.17R
WATERTOWN      CLEAR     56  27  32 E9        30.17R
HURON          CLEAR     55  30  38 E9        30.13R
SISSETON         N/A     46  29  51 CALM      30.18R
ABERDEEN       PTCLDY    50  28  42 E8        30.15S
MITCHELL       CLEAR     55  35  47 S5        30.13R
PIERRE         MOCLDY    53  25  33 SE3       30.09F
MOBRIDGE       CLOUDY    58  24  27 SE9       30.10S
RAPID CITY     CLOUDY    48  39  71 S3        30.10F
$$

  *****  SOME WEATHER IN NEARBY STATES *****

CITY           SKY/WX    TMP DP  RH WIND       PRES   REMARKS
GLASGOW MT     CLEAR     55  37  50 SE17      29.87F
GREAT FALLS MT PTCLDY    50  23  34 SW7       29.79R
CHEYENNE WY    CLOUDY    44  42  93 S8        30.11F FOG
SCOTTSBLUFF NE CLOUDY    51  40  65 SE15      30.11S
OMAHA NE       CLOUDY    60  56  86 E6        30.09R
DES MOINES IA  LGT RAIN  64  61  90 E10       30.07F
DAVENPORT IA   LGT RAIN  63  60  90 W30       30.12S FOG
CHICAGO IL     CLOUDY    55  37  50 NE5       30.17S
EAU CLAIRE WI  PTCLDY    48  40  73 NE5       30.19R
LA CROSSE WI   MOCLDY    58  45  62 E3        30.16S
$$

  *****  SOME NATIONAL WEATHER *****

CITY           SKY/WX    TMP DP  RH WIND       PRES   REMARKS
LA GUARDIA NY  PTCLDY    71  44  37 SW14      30.16R
RALEIGH NC     FAIR      65  54  67 SW8       30.34R
ATLANTA GA     CLEAR     66  52  60 S7        30.30R
NEW ORLEANS LA CLEAR     70  61  73 SE6       30.17S
OKLAHOMA CITY  MOCLDY    67  57  70 S9        30.04R
ALBUQUERQUE NM CLOUDY    56  49  77 W16       30.00R
SALT LAKE CITY MOCLDY    64  43  46 SE5       29.87R
LOS ANGELES CA CLEAR     57  50  77 SW9       29.98R
BOISE ID       CLOUDY    75  34  22 SE22G36   29.77R
SEATTLE WA     PTCLDY    50  43  77 SW12      29.98R
$$

*** WEATHER ACROSS MANITOBA...SASKATCHEWAN AND ONTARIO ***
                ***ONTARIO***

CITY           SKY/WX    TMP DP  RH WIND       PRES   REMARKS
GERALDTON      CLEAR     41  28  60 SW3       30.17S
THUNDER BAY    CLEAR     36  30  80 W2        30.23R
SIOUX LOOKOUT  CLEAR     36  32  87 S3        30.20S
TORONTO        PTCLDY    55  34  44 NW12      30.18S
BIG TROUT LK   CLEAR     28  23  80 W5        30.11R WCI  23
PICKLE LAKE    NOT AVBL
DRYDEN         CLEAR     48  34  57 S3        30.20S
KENORA         CLEAR     52  32  46 S5        30.19F
$$
                *** MANITOBA***

CITY           SKY/WX    TMP DP  RH WIND       PRES   REMARKS
BRANDON        NOT AVBL
DAUPHIN        CLEAR     46  34  61 S9        30.07F
ISLAND LAKE    MOCLDY    34  25  69 CALM      30.14S
PILOT MOUND    NOT AVBL
THE PAS        PTCLDY    37  27  65 E5        30.13F
THOMPSON       CLEAR     25  18  74 CALM      30.15R
WINNIPEG       CLEAR     50  28  43 SE10      30.15F
LYNN LAKE      CLEAR     28  16  59 W6        30.14R WCI  22
CHURCHILL      MOCLDY    23  18  80 NW24G33   30.03R WCI   7
GILLAM         PTCLDY    32  21  64 W9        30.09S WCI  24
$$
                ***SASKATCHEWAN***

CITY           SKY/WX    TMP DP  RH WIND       PRES   REMARKS
ESTEVAN        CLEAR     54  37  54 S13       30.03F
KINDERSLEY     PTCLDY    52  39  62 E16       29.78S
LLOYDMINSTER   PTCLDY    46  32  57 E20G28    29.89F
PRINCE ALBERT  MOCLDY    50  32  50 E14       30.02R
REGINA         MOCLDY    57  41  54 SE16G24   29.93R
YORKTON        MOCLDY    54  34  47 E9        30.01F
N. BATTLEFORD  CLEAR     48  32  53 E22G30    29.90F
LA RONGE       PTCLDY    28  23  80 CALM      30.13S
SASKATOON      PTCLDY    52  32  46 E15       29.91F
SWIFT CURRENT  PTCLDY    59  45  58 S22G28    29.78F
$$
NOTE: THESE ARE AUTOMATED STATIONS WITH LIMITED QUALITY CONTROL
      "FAIR" INDICATES FEW OR NO CLOUDS BELOW 12,000 FEET WITH NO
      SIGNIFICANT WEATHER AND/OR OBSTRUCTIONS TO VISIBILITY.
      SKY/WX - SKY CONDITION AND SIGNIFICANT WEATHER.
      TMP - AIR TEMPERATURE.    DP   - DEWPOINT TEMPERATURE.
      RH  - RELATIVE HUMIDITY.  PRES - PRESSURE.
      HX  - HEAT INDEX.         WCI  - WIND CHILL INDEX.
$


USA.gov is the U.S. government's official web portal to all federal, state and local government web resources and services.